Weather in Twenterand

Netherlands     52°26′41″N   6°35′39″E
temp.,
°C
wind,
m/s
gust,
m/s
humid.,
%
clouds,
%
prec.,
mm/h
press.,
hPa
HPBL,
m
4 july, mon
mon423:00+13wnw33880 0.0 101944
02:00+11w23920 0.0 101932
05:00+11sw349437 0.0 102058
08:00+15ssw46755 0.0 1019313
11:00+20wsw575879 0.1 10191513
14:00+22w675080 0.4 10191859
17:00+22wnw774524 0.0 10191728
20:00+19nw57580 0.0 1019849
5 july, tue
tue523:00+13nnw34830 0.0 102156
02:00+11wsw22890 0.0 102113
05:00+11sw229199 0.0 102121
08:00+15sw3471100 0.0 1021195
11:00+18wsw455611 0.0 1022945
14:00+20wnw774765 0.4 10221780
17:00+20wnw774944 0.0 10221835
20:00+17wnw666060 0.0 10231206
6 july, wed
wed623:00+11nw348718 0.0 102561
02:00+10wnw3389100 0.0 102536
05:00+9wsw33945 0.0 102538
08:00+14w357529 0.0 1025334
11:00+19wsw4554100 0.0 10241233
14:00+20wsw6750100 0.0 10231682
17:00+18w6877100 0.3 1021778
20:00+15wsw51197100 1.8 1020632
7 july, thu
thu723:00+15wsw4109799 0.1 1020346
02:00+15wsw5119692 0.1 1019497
05:00+16w5109699 0.9 1018577
08:00+15nw5119288 1.6 1019701
11:00+19nnw8107073 0.4 10201226
14:00+19nnw810518 0.6 10221578
17:00+18nnw9115568 0.0 10251608
20:00+16nnw61060100 0.1 10261419
8 july, fri
fri823:00+12nw49810 0.0 1028218
02:00+10wnw49930 0.0 1028175
05:00+10nw38956 0.0 1029169
08:00+15nw477495 0.0 1029840
11:00+17nnw4768100 0.0 10301193
14:00+19nw4668100 0.1 10301080
17:00+20nw576945 0.4 10301100
20:00+18nw577096 0.5 1030749